星链-4266 (STARLINK-4266 )

导读

STARLINK-4266是美国太空探索技术公司(SpaceX)星链星座的成员卫星,于2022年6月17日发射升空。星链项目旨在构建全球卫星互联网星座,为全球偏远地区、海洋等网络盲区提供高速互联网接入服务,该卫星承担着扩展星座服务覆盖范围、提升星座网络容量与稳定性的任务。

基本信息
目录编号:
52869
目录名称:
STARLINK-4266
国际标识:
2022-062AR
轨道中心:
EARTH
卫星名称:
星链-4266
卫星全名:
星链-4266 (STARLINK-4266 )
卫星状态:
在轨 (已飞行1548 天)
发射日期:
2022-06-17 UTC
国别 :
美国 (US)
星等 :
--
该卫星已列入 空间交会检测服务 Space Conjunction Data Service (SCDS) ,当前飞行风险评估等级: 高风险
轨道信息
数据来源 国际轨道数据 AOE轨道数据
星历时间 2026-09-12T07:18:26+0800
9小时前
查看轨道信息
2026-09-10T21:00:00+0800
1天前
查看轨道信息
半长轴 6840.844km 6840.916km
偏心率 0.0001174 0.0000018
轨道倾角 53.160° 53.160°
近地点辐角 97.111° 33.413°
升交点赤经 245.298° 251.978°
平近点角 263.002° 346.078°
近地点 461.903km 462.766km
远地点 463.511km 462.792km
周期 93.848分钟 93.849分钟
每日圈数 15.34399 15.343747
详细信息
固有亮度:
5
最大亮度:
2.5
卫星平台:
Starlink v1.5
覆盖范围:
全球
运营商:
太空探索技术公司
运营商所在国:
美国
制造商(研发单位):
太空探索技术公司
制造商所在国:
美国
使用方式:
暂无
卫星简介
星链(Starlink)计划是由太空探索技术公司(SpaceX)提出的一个巨型低轨卫星互联网星座项目,计划在2019年至2024年间在太空搭建由约1.2万颗卫星组成的“星链”网络,其中1584颗将部署在地球上空550千米处的近地轨道,并从2020年开始工作。该卫星仍在工作。
2D轨道图
3D轨道图
轨道高度分析图
轨道倾角分析图
轨道综合分析图
查看轨道综合分析图
交会数据列表
事件ID 空间交会对象 最接近时刻(TCA) 交会距离 交会风险概率(CRP) 交会风险指数(CRI) 操作
CDM_260914-034305-286906-622821
2026-09-14T
03:43:57+0000
0.481 km
远距离
1.984726E-4 高风险 0.81
CDM_260912-163005-236705-286922
2026-09-12T
16:30:14+0000
2.113 km
极远距离
2.216409E-6 低风险 0.42
CDM_260913-190805-286906-622821
2026-09-13T
19:08:08+0000
2.578 km
极远距离
1.479363E-6 低风险 0.38
CDM_260914-114605-286906-276821
2026-09-14T
11:46:50+0000
2.274 km
极远距离
1.367822E-6 低风险 0.38
CDM_260906-064905-286905-846923
2026-09-06T
06:49:36+0000
2.561 km
极远距离
1.301233E-6 低风险 0.37
CDM_260909-222005-111705-286921
2026-09-09T
22:20:25+0000
2.932 km
极远距离
9.558883E-7 极低风险 0.35
与全量物体交会距离演化趋势
与全量物体交会风险概率演化趋势